This is the latest recevied weather packets stored in our database for station/object HP1PCR-13. If no packets are shown the sender has not sent any weather packets the latest 10 day(s).
| Time | Temp. | Humidity | Pressure | Rain* | Wind** | Luminosity | Snow |
|---|---|---|---|---|---|---|---|
| 1778092808 | 34.44° C | 48% | 1003.3 hPa | - | - | - | - |
| 1778092203 | 34.44° C | 48% | 1003.5 hPa | - | - | - | - |
| 1778091599 | 34.44° C | 48% | 1003.7 hPa | - | - | - | - |
| 1778090995 | 34.44° C | 48% | 1003.8 hPa | - | - | - | - |
| 1778090391 | 33.89° C | 48% | 1003.9 hPa | - | - | - | - |
| 1778089786 | 33.89° C | 49% | 1003.9 hPa | - | - | - | - |
| 1778089182 | 33.89° C | 49% | 1004.1 hPa | - | - | - | - |
| 1778088578 | 33.89° C | 51% | 1004.3 hPa | - | - | - | - |
| 1778087974 | 33.89° C | 49% | 1004.4 hPa | - | - | - | - |
| 1778087371 | 33.89° C | 49% | 1004.5 hPa | - | - | - | - |
| 1778086766 | 33.89° C | 49% | 1004.6 hPa | - | - | - | - |
| 1778086162 | 33.89° C | 50% | 1004.7 hPa | - | - | - | - |
| 1778084350 | 33.89° C | 49% | 1005 hPa | - | - | - | - |
| 1778083141 | 33.89° C | 49% | 1005.2 hPa | - | - | - | - |
| 1778082537 | 33.89° C | 47% | 1005.3 hPa | - | - | - | - |
| 1778081934 | 33.89° C | 47% | 1005.4 hPa | - | - | - | - |
| 1778081317 | 33.89° C | 47% | 1005.4 hPa | - | - | - | - |
| 1778080713 | 33.89° C | 47% | 1005.5 hPa | - | - | - | - |
| 1778080109 | 33.89° C | 44% | 1005.4 hPa | - | - | - | - |
| 1778079504 | 33.89° C | 43% | 1005.3 hPa | - | - | - | - |
| 1778078900 | 33.89° C | 42% | 1005.3 hPa | - | - | - | - |
| 1778078296 | 33.89° C | 42% | 1005.1 hPa | - | - | - | - |
| 1778077692 | 33.89° C | 41% | 1005 hPa | - | - | - | - |
| 1778077088 | 33.89° C | 41% | 1005.1 hPa | - | - | - | - |
| 1778076484 | 33.89° C | 41% | 1005 hPa | - | - | - | - |
* Rain since midnight (hover to see other rain measurements)
** Current wind speed in m/s (hover to see current wind gust speed)